Weather in Inverell

Australia     29°46′22″S   151°06′22″E
temp.,
°C
wind,
m/s
gust,
m/s
humid.,
%
clouds,
%
prec.,
mm/h
press.,
hPa
HPBL,
m
6 march, sat
sat623:00+17ene11540 0.0 100923
02:00+14e24750 0.0 100879
05:00+14e36930 0.0 1008187
08:00+16ene37840 0.0 1009285
11:00+23nne33530 0.0 10101300
14:00+25nw334749 0.0 10081723
17:00+25wnw134255 0.1 10071982
20:00+20se125618 0.0 101023
7 march, sun
sun723:00+17ne498313 0.0 1012256
02:00+15ene38920 0.1 1012301
05:00+14ne24950 0.1 1013144
08:00+16ne47853 0.0 1015322
11:00+22n46619 0.1 10161016
14:00+25nnw455228 0.3 10131603
17:00+25nw455415 1.1 10111530
20:00+19ne12740 0.2 101323
8 march, mon
mon823:00+18ene367810 0.2 1015136
02:00+16ne498884 0.1 1015335
05:00+16ne4109486 0.1 1016413
08:00+17nne5129144 0.8 1017630
11:00+20n588070 0.9 1017814
14:00+23nnw4666100 0.1 10151090
17:00+23nw3572100 3.7 1013582
20:00+19wnw258888 4.1 1015197
9 march, tue
tue923:00+18se119394 10.2 101727
02:00+17ne2595100 4.2 1015139
05:00+17ne259399 4.7 1015162
08:00+17nne4896100 1.2 1016352
11:00+19nne3693100 3.1 1017355
14:00+23wnw347978 5.1 1015756
17:00+23wsw237947 9.5 1013733
20:00+19se11861 1.8 101523
10 march, wed
wed1023:00+17e23900 1.8 101752
02:00+16e23890 0.0 101756
05:00+16e23900 0.0 101761
08:00+17e248854 0.0 1018145
11:00+24nne346462 0.0 1018809
14:00+27n34521 0.0 10161441
17:00+26nne235517 0.8 10141384
20:00+19ene51287100 2.0 1016329